VRE739 DFFD-DIAP

Flight info

Callsign VRE739
Flight time 1h 11m
Altitude 32000
Route TUMUT1S TUMUT UG859 ONARI G859 ZANOU ZANOU1S
Aircraft A320/M-SDE3FGHIRWY/LB1

Departure

Time 2026-04-24 06:35
Airport Ouagadougou Thomas Sankara International Airport (DFFD)

Arrival

Time 2026-04-24 07:46
Airport Félix-Houphouët-Boigny International Airport (DIAP)
Time Latitude Longitude Altitude Speed Heading
2026-04-24 05:53 12.35503 -1.51330 1011 ft 0 kts 349°
2026-04-24 06:28 12.35482 -1.51327 1011 ft 4 kts 356°
2026-04-24 06:28 12.35455 -1.51327 1012 ft 4 kts
2026-04-24 06:29 12.35429 -1.51333 1012 ft 4 kts 21°
2026-04-24 06:29 12.35405 -1.51345 1013 ft 3 kts 33°
2026-04-24 06:29 12.35402 -1.51346 1013 ft 0 kts 34°
2026-04-24 06:31 12.35413 -1.51339 1013 ft 6 kts 34°
2026-04-24 06:31 12.35418 -1.51279 1012 ft 13 kts 119°
2026-04-24 06:31 12.35388 -1.51191 1013 ft 12 kts 71°
2026-04-24 06:31 12.35478 -1.51127 1012 ft 20 kts 33°
2026-04-24 06:32 12.35614 -1.51037 1011 ft 27 kts 33°
2026-04-24 06:32 12.35796 -1.50917 1007 ft 34 kts 33°
2026-04-24 06:32 12.36006 -1.50777 1000 ft 39 kts 33°
2026-04-24 06:32 12.36228 -1.50630 992 ft 20 kts 33°
2026-04-24 06:33 12.36363 -1.50539 993 ft 22 kts 35°
2026-04-24 06:33 12.36382 -1.50497 991 ft 7 kts 70°
2026-04-24 06:33 12.36415 -1.50467 988 ft 8 kts 354°
2026-04-24 06:33 12.36410 -1.50509 991 ft 9 kts 214°
2026-04-24 06:34 12.36345 -1.50553 992 ft 13 kts 213°
2026-04-24 06:34 12.36258 -1.50608 992 ft 16 kts 213°
2026-04-24 06:34 12.36124 -1.50698 998 ft 44 kts 212°
2026-04-24 06:34 12.35676 -1.50997 1009 ft 108 kts 213°
2026-04-24 06:35 12.34887 -1.51520 1045 ft 158 kts 214°
2026-04-24 06:35 12.33950 -1.52154 1695 ft 158 kts 214°
2026-04-24 06:35 12.33043 -1.52760 2479 ft 154 kts 213°
2026-04-24 06:35 12.32111 -1.53383 2898 ft 169 kts 216°
2026-04-24 06:36 12.31055 -1.54093 3162 ft 194 kts 216°
2026-04-24 06:36 12.29856 -1.54899 3522 ft 219 kts 215°
2026-04-24 06:36 12.28512 -1.55801 3904 ft 243 kts 215°
2026-04-24 06:36 12.27033 -1.56791 4411 ft 261 kts 214°
2026-04-24 06:37 12.25480 -1.57828 5093 ft 271 kts 214°
2026-04-24 06:37 12.23874 -1.58897 5797 ft 280 kts 212°
2026-04-24 06:37 12.22215 -1.60002 6490 ft 289 kts 211°
2026-04-24 06:37 12.20514 -1.61133 7207 ft 295 kts 211°
2026-04-24 06:38 12.18782 -1.62287 7953 ft 300 kts 211°
2026-04-24 06:38 12.17015 -1.63468 8709 ft 306 kts 211°
2026-04-24 06:38 12.15240 -1.64655 9445 ft 311 kts 211°
2026-04-24 06:38 12.13404 -1.65884 10076 ft 322 kts 211°
2026-04-24 06:39 12.11455 -1.67186 10332 ft 345 kts 211°
2026-04-24 06:39 12.09415 -1.68551 10879 ft 354 kts 211°
2026-04-24 06:39 12.07344 -1.69940 11609 ft 358 kts 212°
2026-04-24 06:39 12.05257 -1.71340 12389 ft 360 kts 212°
2026-04-24 06:40 12.03152 -1.72748 13182 ft 362 kts 212°
2026-04-24 06:40 12.01032 -1.74164 13880 ft 366 kts 212°
2026-04-24 06:40 11.98887 -1.75596 14540 ft 369 kts 212°
2026-04-24 06:40 11.96582 -1.76749 15168 ft 372 kts 196°
2026-04-24 06:41 11.94057 -1.77370 15814 ft 374 kts 192°
2026-04-24 06:41 11.91540 -1.77937 16440 ft 377 kts 192°
2026-04-24 06:41 11.88958 -1.78505 17080 ft 380 kts 192°
2026-04-24 06:41 11.86357 -1.79069 17717 ft 383 kts 193°
2026-04-24 06:42 11.83736 -1.79635 18299 ft 387 kts 193°
2026-04-24 06:42 11.81091 -1.80206 18838 ft 389 kts 193°
2026-04-24 06:42 11.78431 -1.80782 19381 ft 391 kts 193°
2026-04-24 06:42 11.75761 -1.81361 19923 ft 394 kts 193°
2026-04-24 06:43 11.73074 -1.81947 20461 ft 396 kts 193°
2026-04-24 06:43 11.70376 -1.82537 20988 ft 398 kts 193°
2026-04-24 06:43 11.67659 -1.83131 21497 ft 400 kts 193°
2026-04-24 06:43 11.64924 -1.83728 21981 ft 403 kts 193°
2026-04-24 06:44 11.62172 -1.84328 22450 ft 406 kts 193°
2026-04-24 06:44 11.59395 -1.84932 22931 ft 408 kts 193°
2026-04-24 06:44 11.56644 -1.85529 23400 ft 411 kts 193°
2026-04-24 06:44 11.53842 -1.86137 23784 ft 413 kts 193°
2026-04-24 06:45 11.51023 -1.86751 24170 ft 416 kts 193°
2026-04-24 06:45 11.48183 -1.87368 24530 ft 418 kts 193°
2026-04-24 06:45 11.45330 -1.87988 24893 ft 421 kts 193°
2026-04-24 06:45 11.42451 -1.88611 25254 ft 424 kts 193°
2026-04-24 06:46 11.39559 -1.89236 25612 ft 426 kts 193°
2026-04-24 06:46 11.36650 -1.89869 25969 ft 429 kts 193°
2026-04-24 06:46 11.33717 -1.90511 26329 ft 432 kts 193°
2026-04-24 06:46 11.30773 -1.91154 26679 ft 434 kts 193°
2026-04-24 06:47 11.27814 -1.91799 27023 ft 436 kts 193°
2026-04-24 06:47 11.24836 -1.92447 27350 ft 439 kts 193°
2026-04-24 06:47 11.21834 -1.93099 27677 ft 442 kts 193°
2026-04-24 06:47 11.18814 -1.93755 27993 ft 445 kts 193°
2026-04-24 06:48 11.15774 -1.94415 28322 ft 447 kts 193°
2026-04-24 06:48 11.12718 -1.95077 28647 ft 450 kts 193°
2026-04-24 06:48 11.09647 -1.95740 28967 ft 453 kts 193°
2026-04-24 06:48 11.06563 -1.96408 29291 ft 455 kts 193°
2026-04-24 06:49 11.03454 -1.97082 29618 ft 457 kts 193°
2026-04-24 06:49 11.00337 -1.97776 29917 ft 460 kts 196°
2026-04-24 06:49 10.97323 -1.98749 30171 ft 461 kts 200°
2026-04-24 06:49 10.94244 -1.99813 30455 ft 462 kts 200°
2026-04-24 06:50 10.91232 -2.00852 30745 ft 463 kts 200°
2026-04-24 06:50 10.88175 -2.01903 31024 ft 464 kts 200°
2026-04-24 06:50 10.85105 -2.02958 31306 ft 466 kts 200°
2026-04-24 06:50 10.82035 -2.04008 31616 ft 466 kts 200°
2026-04-24 06:51 10.78966 -2.05059 31806 ft 464 kts 200°
2026-04-24 06:51 10.75941 -2.06098 31845 ft 450 kts 200°
2026-04-24 06:51 10.73034 -2.07096 31846 ft 436 kts 200°
2026-04-24 06:52 10.67348 -2.09050 31847 ft 428 kts 200°
2026-04-24 06:52 10.61703 -2.10989 31846 ft 427 kts 200°
2026-04-24 06:53 10.56065 -2.12925 31844 ft 427 kts 200°
2026-04-24 06:53 10.50426 -2.14859 31843 ft 428 kts 200°
2026-04-24 06:54 10.44793 -2.16794 31844 ft 427 kts 200°
2026-04-24 06:54 10.39192 -2.18711 31839 ft 427 kts 200°
2026-04-24 06:55 10.33562 -2.20644 31837 ft 427 kts 200°
2026-04-24 06:55 10.27926 -2.22576 31838 ft 427 kts 200°
2026-04-24 06:56 10.22297 -2.24497 31839 ft 427 kts 200°
2026-04-24 06:56 10.16657 -2.26427 31833 ft 427 kts 200°
2026-04-24 06:57 10.11023 -2.28367 31833 ft 427 kts 200°
2026-04-24 06:57 10.05394 -2.30312 31846 ft 427 kts 200°
2026-04-24 06:58 9.99780 -2.32238 31857 ft 425 kts 200°
2026-04-24 06:58 9.94202 -2.34150 31863 ft 424 kts 200°
2026-04-24 06:59 9.88610 -2.36073 31861 ft 424 kts 200°
2026-04-24 06:59 9.83029 -2.37992 31858 ft 423 kts 200°
2026-04-24 07:00 9.77447 -2.39908 31855 ft 423 kts 200°
2026-04-24 07:00 9.71869 -2.41818 31850 ft 423 kts 200°
2026-04-24 07:01 9.66288 -2.43733 31857 ft 423 kts 200°
2026-04-24 07:01 9.60709 -2.45646 31851 ft 423 kts 200°
2026-04-24 07:02 9.55159 -2.47543 31845 ft 423 kts 200°
2026-04-24 07:02 9.49574 -2.49455 31851 ft 423 kts 200°
2026-04-24 07:03 9.43991 -2.51365 31845 ft 423 kts 200°
2026-04-24 07:03 9.38395 -2.53290 31841 ft 424 kts 200°
2026-04-24 07:04 9.33736 -2.54887 31842 ft 425 kts 200°
2026-04-24 07:04 9.27215 -2.57115 31844 ft 425 kts 199°
2026-04-24 07:05 9.21602 -2.59028 31851 ft 426 kts 200°
2026-04-24 07:05 9.15991 -2.60941 31852 ft 426 kts 200°
2026-04-24 07:06 9.11324 -2.62538 31849 ft 426 kts 200°
2026-04-24 07:06 9.05716 -2.64458 31854 ft 425 kts 199°
2026-04-24 07:07 9.00102 -2.66372 31853 ft 426 kts 199°
2026-04-24 07:07 8.91672 -2.69251 31867 ft 425 kts 199°
2026-04-24 07:08 8.86101 -2.71144 31867 ft 425 kts 199°
2026-04-24 07:08 8.80505 -2.73042 31865 ft 424 kts 199°
2026-04-24 07:09 8.74916 -2.74944 31863 ft 424 kts 199°
2026-04-24 07:09 8.69316 -2.76843 31877 ft 424 kts 199°
2026-04-24 07:10 8.63735 -2.78745 31899 ft 422 kts 199°
2026-04-24 07:10 8.58170 -2.80634 31901 ft 421 kts 199°
2026-04-24 07:11 8.52620 -2.82516 31899 ft 420 kts 199°
2026-04-24 07:11 8.47086 -2.84399 31896 ft 419 kts 199°
2026-04-24 07:12 8.41549 -2.86278 31893 ft 419 kts 199°
2026-04-24 07:12 8.36047 -2.88139 31892 ft 419 kts 199°
2026-04-24 07:13 8.30512 -2.90023 31888 ft 420 kts 199°
2026-04-24 07:13 8.24980 -2.91899 31883 ft 420 kts 199°
2026-04-24 07:14 8.19420 -2.93775 31883 ft 421 kts 199°
2026-04-24 07:14 8.13860 -2.95665 31887 ft 421 kts 199°
2026-04-24 07:15 8.08300 -2.97559 31887 ft 422 kts 199°
2026-04-24 07:15 8.02734 -2.99443 31888 ft 422 kts 199°
2026-04-24 07:16 7.97167 -3.01317 31892 ft 422 kts 199°
2026-04-24 07:16 7.91637 -3.03190 31891 ft 422 kts 198°
2026-04-24 07:17 7.86037 -3.05086 31885 ft 422 kts 198°
2026-04-24 07:17 7.80502 -3.06954 31883 ft 422 kts 198°
2026-04-24 07:18 7.74932 -3.08834 31881 ft 422 kts 198°
2026-04-24 07:18 7.69358 -3.10721 31882 ft 422 kts 198°
2026-04-24 07:19 7.63792 -3.12607 31883 ft 422 kts 198°
2026-04-24 07:19 7.58211 -3.14486 31884 ft 422 kts 198°
2026-04-24 07:20 7.52630 -3.16365 31879 ft 423 kts 198°
2026-04-24 07:20 7.47086 -3.18237 31879 ft 423 kts 198°
2026-04-24 07:21 7.41496 -3.20125 31881 ft 424 kts 198°
2026-04-24 07:21 7.35908 -3.22016 31876 ft 424 kts 198°
2026-04-24 07:22 7.30311 -3.23904 31881 ft 424 kts 198°
2026-04-24 07:22 7.24716 -3.25782 31882 ft 424 kts 198°
2026-04-24 07:23 7.19119 -3.27665 31879 ft 424 kts 198°
2026-04-24 07:23 7.13554 -3.29539 31879 ft 424 kts 198°
2026-04-24 07:24 7.07960 -3.31427 31883 ft 424 kts 198°
2026-04-24 07:24 7.02367 -3.33308 31884 ft 424 kts 198°
2026-04-24 07:25 6.96773 -3.35193 31887 ft 424 kts 198°
2026-04-24 07:25 6.93953 -3.36144 31507 ft 431 kts 198°
2026-04-24 07:25 6.91100 -3.37106 30823 ft 433 kts 198°
2026-04-24 07:26 6.88248 -3.38064 30331 ft 429 kts 197°
2026-04-24 07:26 6.85416 -3.39013 29808 ft 427 kts 197°
2026-04-24 07:26 6.82617 -3.39950 29278 ft 423 kts 198°
2026-04-24 07:26 6.79840 -3.40882 28809 ft 418 kts 198°
2026-04-24 07:27 6.77104 -3.41801 28353 ft 413 kts 197°
2026-04-24 07:27 6.74397 -3.42713 27889 ft 408 kts 198°
2026-04-24 07:27 6.71707 -3.43621 27413 ft 404 kts 198°
2026-04-24 07:27 6.69055 -3.44517 26967 ft 400 kts 198°
2026-04-24 07:28 6.66430 -3.45404 26493 ft 397 kts 198°
2026-04-24 07:28 6.63820 -3.46283 26030 ft 393 kts 198°
2026-04-24 07:28 6.61232 -3.47152 25552 ft 391 kts 198°
2026-04-24 07:28 6.58692 -3.48003 25078 ft 389 kts 198°
2026-04-24 07:29 6.56134 -3.48859 24592 ft 388 kts 198°
2026-04-24 07:29 6.53578 -3.49713 24106 ft 386 kts 198°
2026-04-24 07:29 6.51021 -3.50567 23610 ft 385 kts 197°
2026-04-24 07:29 6.48479 -3.51417 23059 ft 385 kts 197°
2026-04-24 07:30 6.45942 -3.52267 22569 ft 382 kts 197°
2026-04-24 07:30 6.43433 -3.53111 22094 ft 380 kts 198°
2026-04-24 07:30 6.40937 -3.53954 21624 ft 377 kts 198°
2026-04-24 07:30 6.38456 -3.54790 21159 ft 376 kts 197°
2026-04-24 07:31 6.35973 -3.55625 20693 ft 374 kts 198°
2026-04-24 07:31 6.33511 -3.56449 20235 ft 373 kts 198°
2026-04-24 07:31 6.31052 -3.57271 19779 ft 372 kts 198°
2026-04-24 07:31 6.28604 -3.58090 19326 ft 370 kts 198°
2026-04-24 07:32 6.26160 -3.58908 18878 ft 370 kts 198°
2026-04-24 07:32 6.23719 -3.59729 18432 ft 369 kts 198°
2026-04-24 07:32 6.21318 -3.60538 17954 ft 368 kts 198°
2026-04-24 07:32 6.18893 -3.61353 17503 ft 366 kts 198°
2026-04-24 07:33 6.16483 -3.62161 17070 ft 364 kts 197°
2026-04-24 07:33 6.14092 -3.62963 16654 ft 362 kts 197°
2026-04-24 07:33 6.11713 -3.63761 16220 ft 360 kts 197°
2026-04-24 07:33 6.09339 -3.64558 15812 ft 358 kts 197°
2026-04-24 07:34 6.06978 -3.65347 15405 ft 357 kts 197°
2026-04-24 07:34 6.04623 -3.66135 15000 ft 356 kts 197°
2026-04-24 07:34 6.02275 -3.66924 14595 ft 355 kts 196°
2026-04-24 07:34 5.99929 -3.67713 14184 ft 355 kts 196°
2026-04-24 07:35 5.97588 -3.68502 13776 ft 354 kts 196°
2026-04-24 07:35 5.95258 -3.69285 13348 ft 353 kts 196°
2026-04-24 07:35 5.92929 -3.70064 12945 ft 351 kts 195°
2026-04-24 07:35 5.90652 -3.70826 12818 ft 334 kts 195°
2026-04-24 07:36 5.88536 -3.71539 12842 ft 307 kts 195°
2026-04-24 07:36 5.86498 -3.72222 12881 ft 321 kts 195°
2026-04-24 07:36 5.84320 -3.72946 12818 ft 329 kts 195°
2026-04-24 07:36 5.82130 -3.73675 12002 ft 334 kts 195°
2026-04-24 07:37 5.79947 -3.74404 11163 ft 336 kts 195°
2026-04-24 07:37 5.77691 -3.75158 10320 ft 338 kts 195°
2026-04-24 07:37 5.75483 -3.75896 9472 ft 339 kts 195°
2026-04-24 07:37 5.73253 -3.76645 8686 ft 335 kts 195°
2026-04-24 07:38 5.71088 -3.77377 8205 ft 322 kts 195°
2026-04-24 07:38 5.69005 -3.78081 7777 ft 308 kts 195°
2026-04-24 07:38 5.67017 -3.78750 7360 ft 298 kts 195°
2026-04-24 07:38 5.65059 -3.79403 6964 ft 296 kts 195°
2026-04-24 07:39 5.63100 -3.80026 6561 ft 293 kts 190°
2026-04-24 07:39 5.61124 -3.80392 6158 ft 291 kts 187°
2026-04-24 07:39 5.59110 -3.80749 5727 ft 288 kts 188°
2026-04-24 07:39 5.57174 -3.81096 5351 ft 285 kts 188°
2026-04-24 07:40 5.55235 -3.81443 4963 ft 281 kts 188°
2026-04-24 07:40 5.53319 -3.81786 4578 ft 277 kts 189°
2026-04-24 07:40 5.51442 -3.82164 4180 ft 273 kts 197°
2026-04-24 07:40 5.49682 -3.82854 3811 ft 269 kts 202°
2026-04-24 07:41 5.47965 -3.83563 3442 ft 265 kts 203°
2026-04-24 07:41 5.46284 -3.84261 3200 ft 258 kts 203°
2026-04-24 07:41 5.44647 -3.84943 3019 ft 251 kts 203°
2026-04-24 07:41 5.43087 -3.85589 3006 ft 232 kts 203°
2026-04-24 07:42 5.41663 -3.86175 2856 ft 211 kts 203°
2026-04-24 07:42 5.40352 -3.86716 2634 ft 198 kts 203°
2026-04-24 07:42 5.39126 -3.87222 2405 ft 182 kts 203°
2026-04-24 07:42 5.38011 -3.87682 2170 ft 166 kts 204°
2026-04-24 07:43 5.36979 -3.88108 1960 ft 156 kts 204°
2026-04-24 07:43 5.35989 -3.88517 1762 ft 151 kts 204°
2026-04-24 07:43 5.35074 -3.88893 1594 ft 135 kts 204°
2026-04-24 07:43 5.34237 -3.89239 1404 ft 127 kts 204°
2026-04-24 07:44 5.33427 -3.89574 1249 ft 128 kts 205°
2026-04-24 07:44 5.32597 -3.89916 1088 ft 126 kts 204°
2026-04-24 07:44 5.31791 -3.90249 925 ft 125 kts 204°
2026-04-24 07:44 5.30993 -3.90579 773 ft 125 kts 204°
2026-04-24 07:45 5.30174 -3.90917 637 ft 128 kts 204°
2026-04-24 07:45 5.29351 -3.91255 460 ft 128 kts 202°
2026-04-24 07:45 5.28531 -3.91590 259 ft 127 kts 206°
2026-04-24 07:45 5.27724 -3.91921 134 ft 125 kts 206°
2026-04-24 07:46 5.26944 -3.92252 29 ft 111 kts 203°
2026-04-24 07:46 5.26391 -3.92481 22 ft 62 kts 202°
2026-04-24 07:46 5.26148 -3.92579 25 ft 13 kts 202°
2026-04-24 07:46 5.26100 -3.92599 24 ft 11 kts 202°
2026-04-24 07:47 5.26002 -3.92639 29 ft 20 kts 202°
2026-04-24 07:47 5.25853 -3.92700 27 ft 27 kts 202°
2026-04-24 07:47 5.25659 -3.92782 27 ft 33 kts 203°
2026-04-24 07:47 5.25511 -3.92840 29 ft 22 kts 202°
2026-04-24 07:48 5.25467 -3.92906 24 ft 11 kts 280°
2026-04-24 07:48 5.25502 -3.92999 25 ft 12 kts 284°
2026-04-24 07:48 5.25443 -3.93054 25 ft 10 kts 202°
2026-04-24 07:48 5.25373 -3.93084 24 ft 1 kts 203°
2026-04-24 07:49 5.25354 -3.93105 24 ft 8 kts 256°
2026-04-24 07:49 5.25383 -3.93170 24 ft 7 kts 294°
2026-04-24 07:49 5.25389 -3.93184 27 ft 2 kts 292°
2026-04-24 07:49 5.25391 -3.93190 26 ft 0 kts 292°